Location: Beetenbrück
(52.8113°N, 9.5946°E)
Time: 22:51:15
(UTC+00:00)

Cosmos 1536 Rocket - Pass Details

Date: 14 April 2026
Orbit: 598 x 625 km, 82.5° (Epoch: 12 May)

Event Time Altitude Azimuth Distance (km) Brightness Sun altitude
Rises 22:53:55 0° 345° (NNW) 2,863 8.3 -27.2°
Reaches altitude 10° 22:56:10 10° 342° (NNW) 1,953 7.1 -27.3°
Enters shadow 22:59:24 44° 311° (NW) 837 4.4 -27.3°
